When you browse on this site, cookies collect data to enhance your experience and personalize the content and advertising you see.
Visit our Privacy Policy to learn more. By continuing to use the site, you agree to this use of cookies and data.
  • In United Kingdom
  • List of Countries
  • For 7 days
  • Water Temperature
  • Weather Map
  • Weather Widgets
  • user-avatar
    Login

    Hourly Weather London

    Today, 25 May, Monday

    Time Temperature Precipitation Wind Pressure Humidity
    00:00 +13°C° 0 mm 2 mps 774 mmHg 81%
    01:00 +13°C° 0 mm 1 mps 774 mmHg 81%
    02:00 +12°C° 0 mm 1 mps 774 mmHg 81%
    03:00 +12°C° 0 mm 1 mps 774 mmHg 81%
    04:00 +13°C° 0 mm 1 mps 774 mmHg 80%
    05:00 +13°C° 0 mm 1 mps 774 mmHg 78%
    06:00 +14°C° 0 mm 1 mps 774 mmHg 77%
    07:00 +16°C° 0 mm 1 mps 774 mmHg 72%
    08:00 +19°C° 0 mm 1 mps 774 mmHg 67%
    09:00 +21°C° 0 mm 1 mps 775 mmHg 62%
    10:00 +21°C° 0 mm 1 mps 775 mmHg 59%
    11:00 +21°C° 0 mm 2 mps 774 mmHg 55%
    12:00 +23°C° 0 mm 2 mps 774 mmHg 51%
    13:00 +23°C° 0 mm 2 mps 774 mmHg 52%
    14:00 +23°C° 0 mm 2 mps 774 mmHg 52%
    15:00 +23°C° 0 mm 2 mps 774 mmHg 53%
    16:00 +23°C° 0 mm 2 mps 774 mmHg 56%
    17:00 +23°C° 0 mm 2 mps 774 mmHg 60%
    18:00 +21°C° 0 mm 2 mps 774 mmHg 64%
    19:00 +19°C° 0 mm 2 mps 774 mmHg 69%
    20:00 +18°C° 0 mm 2 mps 775 mmHg 73%
    21:00 +16°C° 0 mm 2 mps 775 mmHg 77%
    22:00 +15°C° 0 mm 2 mps 775 mmHg 77%
    23:00 +15°C° 0 mm 1 mps 775 mmHg 77%

    Tomorrow, 26 May, Tuesday

    Time Temperature Precipitation Wind Pressure Humidity
    00:00 +14°C° 0 mm 1 mps 775 mmHg 77%
    01:00 +14°C° 0 mm 1 mps 775 mmHg 76%
    02:00 +13°C° 0 mm 1 mps 775 mmHg 76%
    03:00 +13°C° 0 mm 1 mps 775 mmHg 75%
    04:00 +13°C° 0 mm 1 mps 775 mmHg 72%
    05:00 +14°C° 0 mm 1 mps 775 mmHg 69%
    06:00 +15°C° 0 mm 1 mps 775 mmHg 67%
    07:00 +18°C° 0 mm 1 mps 775 mmHg 63%
    08:00 +19°C° 0 mm 1 mps 776 mmHg 59%
    09:00 +21°C° 0 mm 1 mps 776 mmHg 56%
    10:00 +21°C° 0 mm 2 mps 776 mmHg 53%
    11:00 +23°C° 0 mm 2 mps 775 mmHg 50%
    12:00 +24°C° 0 mm 2 mps 775 mmHg 47%
    13:00 +24°C° 0 mm 2 mps 775 mmHg 48%
    14:00 +24°C° 0 mm 3 mps 775 mmHg 50%
    15:00 +22°C° 0 mm 3 mps 775 mmHg 52%
    16:00 +22°C° 0 mm 3 mps 775 mmHg 57%
    17:00 +23°C° 0 mm 2 mps 774 mmHg 61%
    18:00 +21°C° 0 mm 2 mps 774 mmHg 66%
    19:00 +20°C° 0 mm 2 mps 775 mmHg 71%
    20:00 +19°C° 0 mm 2 mps 775 mmHg 76%
    21:00 +19°C° 0 mm 1 mps 775 mmHg 80%
    22:00 +18°C° 0 mm 1 mps 775 mmHg 82%
    23:00 +18°C° 0 mm 1 mps 775 mmHg 84%

    Day after tomorrow, 27 May, Wednesday

    Time Temperature Precipitation Wind Pressure Humidity
    00:00 +16°C° 0 mm 1 mps 775 mmHg 85%
    01:00 +16°C° 0 mm 1 mps 775 mmHg 86%
    02:00 +15°C° 0 mm 2 mps 775 mmHg 87%
    03:00 +15°C° 0 mm 2 mps 775 mmHg 87%
    04:00 +15°C° 0 mm 2 mps 775 mmHg 85%
    05:00 +15°C° 0 mm 2 mps 775 mmHg 83%
    06:00 +14°C° 0 mm 3 mps 775 mmHg 81%
    07:00 +17°C° 0 mm 2 mps 775 mmHg 77%
    08:00 +18°C° 0 mm 2 mps 775 mmHg 72%
    09:00 +20°C° 0 mm 2 mps 775 mmHg 67%
    10:00 +20°C° 0.1 mm 2 mps 775 mmHg 65%
    11:00 +21°C° 0.1 mm 2 mps 775 mmHg 63%
    12:00 +21°C° 0.1 mm 2 mps 775 mmHg 61%
    13:00 +21°C° 0.1 mm 3 mps 775 mmHg 61%
    14:00 +21°C° 0.1 mm 3 mps 775 mmHg 61%
    15:00 +21°C° 0.1 mm 3 mps 774 mmHg 61%
    16:00 +20°C° 0 mm 3 mps 774 mmHg 64%
    17:00 +19°C° 0 mm 3 mps 774 mmHg 66%
    18:00 +19°C° 0 mm 3 mps 774 mmHg 69%
    19:00 +17°C° 0 mm 3 mps 774 mmHg 72%
    20:00 +14°C° 0 mm 3 mps 774 mmHg 75%
    21:00 +13°C° 0 mm 3 mps 774 mmHg 78%
    22:00 +13°C° 0 mm 2 mps 774 mmHg 79%
    23:00 +13°C° 0 mm 2 mps 774 mmHg 80%

    28 May, Thursday

    Time Temperature Precipitation Wind Pressure Humidity
    00:00 +12°C° 0 mm 2 mps 774 mmHg 81%
    01:00 +12°C° 0 mm 2 mps 774 mmHg 80%
    02:00 +10°C° 0 mm 2 mps 773 mmHg 80%
    03:00 +10°C° 0 mm 2 mps 773 mmHg 80%
    04:00 +10°C° 0 mm 2 mps 773 mmHg 78%
    05:00 +12°C° 0 mm 2 mps 773 mmHg 77%
    06:00 +13°C° 0 mm 2 mps 773 mmHg 75%
    07:00 +13°C° 0 mm 3 mps 773 mmHg 69%
    08:00 +16°C° 0 mm 3 mps 772 mmHg 62%
    09:00 +18°C° 0 mm 3 mps 772 mmHg 56%
    10:00 +18°C° 0 mm 4 mps 772 mmHg 52%
    11:00 +19°C° 0 mm 4 mps 771 mmHg 48%
    12:00 +20°C° 0 mm 4 mps 771 mmHg 45%
    13:00 +20°C° 0 mm 4 mps 771 mmHg 45%
    14:00 +20°C° 0 mm 4 mps 770 mmHg 46%
    15:00 +20°C° 0 mm 5 mps 770 mmHg 46%
    16:00 +19°C° 0 mm 4 mps 770 mmHg 49%
    17:00 +18°C° 0 mm 4 mps 770 mmHg 53%
    18:00 +17°C° 0 mm 4 mps 769 mmHg 56%
    19:00 +14°C° 0 mm 4 mps 769 mmHg 62%
    20:00 +13°C° 0 mm 4 mps 769 mmHg 68%
    21:00 +11°C° 0 mm 3 mps 769 mmHg 74%
    22:00 +11°C° 0 mm 3 mps 769 mmHg 76%
    23:00 +11°C° 0 mm 3 mps 769 mmHg 78%

    29 May, Friday

    Time Temperature Precipitation Wind Pressure Humidity
    00:00 +10°C° 0 mm 3 mps 769 mmHg 80%
    01:00 +10°C° 0 mm 3 mps 769 mmHg 81%
    02:00 +10°C° 0 mm 3 mps 769 mmHg 83%
    03:00 +10°C° 0 mm 2 mps 769 mmHg 84%
    04:00 +10°C° 0 mm 3 mps 768 mmHg 83%
    05:00 +11°C° 0 mm 3 mps 768 mmHg 82%
    06:00 +12°C° 0 mm 3 mps 768 mmHg 81%
    07:00 +14°C° 0 mm 3 mps 768 mmHg 75%
    08:00 +16°C° 0 mm 3 mps 768 mmHg 68%
    09:00 +17°C° 0 mm 4 mps 768 mmHg 62%
    10:00 +18°C° 0 mm 4 mps 767 mmHg 59%
    11:00 +19°C° 0 mm 4 mps 767 mmHg 57%
    12:00 +19°C° 0 mm 4 mps 767 mmHg 54%
    13:00 +19°C° 0 mm 4 mps 766 mmHg 54%
    14:00 +19°C° 0 mm 4 mps 766 mmHg 54%
    15:00 +19°C° 0 mm 3 mps 766 mmHg 54%
    16:00 +18°C° 0 mm 3 mps 766 mmHg 56%
    17:00 +17°C° 0 mm 3 mps 765 mmHg 58%
    18:00 +16°C° 0 mm 3 mps 765 mmHg 60%
    19:00 +14°C° 0 mm 3 mps 765 mmHg 64%
    20:00 +12°C° 0 mm 3 mps 766 mmHg 69%
    21:00 +11°C° 0 mm 3 mps 766 mmHg 73%
    22:00 +10°C° 0 mm 2 mps 766 mmHg 75%
    23:00 +10°C° 0 mm 2 mps 766 mmHg 77%

    30 May, Saturday

    Time Temperature Precipitation Wind Pressure Humidity
    00:00 +9°C° 0 mm 2 mps 766 mmHg 80%
    01:00 +9°C° 0 mm 2 mps 765 mmHg 81%
    02:00 +10°C° 0 mm 1 mps 765 mmHg 82%
    03:00 +9°C° 0 mm 1 mps 765 mmHg 83%
    04:00 +10°C° 0 mm 1 mps 765 mmHg 81%
    05:00 +11°C° 0 mm 1 mps 765 mmHg 79%
    06:00 +12°C° 0 mm 1 mps 765 mmHg 77%
    07:00 +13°C° 0 mm 1 mps 765 mmHg 70%
    08:00 +15°C° 0 mm 2 mps 765 mmHg 62%
    09:00 +17°C° 0 mm 2 mps 765 mmHg 55%
    10:00 +18°C° 0 mm 2 mps 765 mmHg 52%
    11:00 +20°C° 0 mm 2 mps 765 mmHg 49%
    12:00 +21°C° 0 mm 2 mps 765 mmHg 46%
    13:00 +21°C° 0 mm 2 mps 765 mmHg 46%
    14:00 +21°C° 0 mm 2 mps 765 mmHg 47%
    15:00 +21°C° 0 mm 3 mps 764 mmHg 47%
    16:00 +20°C° 0 mm 3 mps 764 mmHg 52%
    17:00 +19°C° 0 mm 3 mps 764 mmHg 57%
    18:00 +18°C° 0 mm 3 mps 764 mmHg 61%
    19:00 +17°C° 0 mm 3 mps 764 mmHg 66%
    20:00 +15°C° 0 mm 2 mps 764 mmHg 71%
    21:00 +14°C° 0 mm 2 mps 764 mmHg 75%
    22:00 +13°C° 0 mm 2 mps 764 mmHg 77%
    23:00 +13°C° 0 mm 1 mps 764 mmHg 78%
    Show more